Time,TemperatureF,DewpointF,PressureIn,WindDirection,WindDirectionDegrees,WindSpeedMPH,WindSpeedGustMPH,Humidity,HourlyPrecipIn,Conditions,Clouds,dailyrainin,SolarRadiationWatts/m^2,SoftwareType,DateUTC
2013-01-06 00:08:00,61.0,58.0,30.23,North,2,4.0,4.0,88,0.00,,,0.00,0,weatherlink.com 1.10,2013-01-06 05:08:00,
2013-01-06 00:22:00,60.9,57.0,30.22,NNE,33,0.0,4.0,88,0.00,,,0.00,0,weatherlink.com 1.10,2013-01-06 05:22:00,
2013-01-06 00:37:00,60.7,57.0,30.22,NNE,20,0.0,2.0,88,0.00,,,0.00,0,weatherlink.com 1.10,2013-01-06 05:37:00,
2013-01-06 00:52:00,60.5,57.0,30.21,NNE,20,0.0,2.0,89,0.00,,,0.00,0,weatherlink.com 1.10,2013-01-06 05:52:00,
2013-01-06 04:48:00,59.7,57.0,30.17,East,82,1.0,2.0,91,0.00,,,0.00,0,weatherlink.com 1.10,2013-01-06 09:48:00,
2013-01-06 04:53:00,59.7,57.0,30.16,ENE,63,1.0,3.0,91,0.00,,,0.00,0,weatherlink.com 1.10,2013-01-06 09:53:00,
2013-01-06 05:08:00,59.6,57.0,30.17,ENE,63,0.0,2.0,91,0.00,,,0.00,0,weatherlink.com 1.10,2013-01-06 10:08:00,
2013-01-06 05:23:00,59.6,57.0,30.17,ENE,63,0.0,2.0,91,0.00,,,0.00,0,weatherlink.com 1.10,2013-01-06 10:23:00,
2013-01-06 05:38:00,59.7,57.0,30.16,ENE,62,1.0,2.0,91,0.00,,,0.00,0,weatherlink.com 1.10,2013-01-06 10:38:00,
2013-01-06 05:53:00,59.7,57.0,30.16,NE,39,0.0,3.0,91,0.00,,,0.00,0,weatherlink.com 1.10,2013-01-06 10:53:00,
2013-01-06 06:08:00,59.8,57.0,30.16,NE,34,0.0,2.0,91,0.00,,,0.00,0,weatherlink.com 1.10,2013-01-06 11:08:00,
2013-01-06 06:23:00,59.8,57.0,30.16,NNE,30,0.0,4.0,91,0.00,,,0.00,0,weatherlink.com 1.10,2013-01-06 11:23:00,
2013-01-06 06:38:00,59.8,57.0,30.16,NNE,33,0.0,4.0,91,0.00,,,0.00,0,weatherlink.com 1.10,2013-01-06 11:38:00,
2013-01-06 06:53:00,59.7,58.0,30.16,SE,124,0.0,2.0,93,0.00,,,0.00,0,weatherlink.com 1.10,2013-01-06 11:53:00,
2013-01-06 07:08:00,59.8,58.0,30.16,ESE,111,0.0,3.0,94,0.00,,,0.00,0,weatherlink.com 1.10,2013-01-06 12:08:00,
2013-01-06 07:23:00,59.9,59.0,30.16,ESE,105,1.0,2.0,95,0.00,,,0.00,9,weatherlink.com 1.10,2013-01-06 12:23:00,
2013-01-06 07:38:00,60.0,59.0,30.16,ESE,118,0.0,3.0,95,0.00,,,0.00,33,weatherlink.com 1.10,2013-01-06 12:38:00,
2013-01-06 07:53:00,60.2,59.0,30.17,SSE,154,0.0,2.0,96,0.00,,,0.00,62,weatherlink.com 1.10,2013-01-06 12:53:00,
2013-01-06 08:08:00,60.3,59.0,30.18,SSE,155,0.0,2.0,95,0.00,,,0.00,32,weatherlink.com 1.10,2013-01-06 13:08:00,
2013-01-06 08:24:00,60.4,59.0,30.18,SSE,155,0.0,1.0,95,0.00,,,0.00,46,weatherlink.com 1.10,2013-01-06 13:24:00,
2013-01-06 08:39:00,60.7,59.0,30.18,NW,307,0.0,3.0,95,0.00,,,0.00,76,weatherlink.com 1.10,2013-01-06 13:39:00,
2013-01-06 08:54:00,61.4,60.0,30.18,NW,307,0.0,1.0,95,0.00,,,0.00,118,weatherlink.com 1.10,2013-01-06 13:54:00,
2013-01-06 09:09:00,62.2,61.0,30.18,NW,307,0.0,2.0,95,0.00,,,0.00,137,weatherlink.com 1.10,2013-01-06 14:09:00,
2013-01-06 09:24:00,62.6,61.0,30.19,NW,307,0.0,3.0,94,0.00,,,0.00,244,weatherlink.com 1.10,2013-01-06 14:24:00,
2013-01-06 09:39:00,63.3,62.0,30.19,SE,130,3.0,3.0,94,0.00,,,0.00,406,weatherlink.com 1.10,2013-01-06 14:39:00,
2013-01-06 09:54:00,64.8,62.0,30.19,SSE,161,1.0,3.0,91,0.00,,,0.00,526,weatherlink.com 1.10,2013-01-06 14:54:00,
2013-01-06 10:09:00,66.7,63.0,30.19,SE,137,1.0,2.0,88,0.00,,,0.00,496,weatherlink.com 1.10,2013-01-06 15:09:00,
2013-01-06 10:24:00,67.1,64.0,30.19,West,275,1.0,2.0,88,0.00,,,0.00,432,weatherlink.com 1.10,2013-01-06 15:24:00,
2013-01-06 10:39:00,68.5,64.0,30.19,SW,226,2.0,5.0,86,0.00,,,0.00,496,weatherlink.com 1.10,2013-01-06 15:39:00,
2013-01-06 10:54:00,68.9,64.0,30.18,West,262,2.0,5.0,85,0.00,,,0.00,527,weatherlink.com 1.10,2013-01-06 15:54:00,
2013-01-06 11:09:00,69.0,64.0,30.17,SE,130,1.0,5.0,85,0.00,,,0.00,548,weatherlink.com 1.10,2013-01-06 16:09:00,
2013-01-06 11:24:00,69.6,65.0,30.16,SE,130,5.0,5.0,85,0.00,,,0.00,568,weatherlink.com 1.10,2013-01-06 16:24:00,
2013-01-06 11:39:00,69.9,66.0,30.16,SE,142,0.0,7.0,86,0.00,,,0.00,584,weatherlink.com 1.10,2013-01-06 16:39:00,
2013-01-06 11:54:00,70.3,66.0,30.15,SW,224,4.0,8.0,87,0.00,,,0.00,605,weatherlink.com 1.10,2013-01-06 16:54:00,
2013-01-06 12:09:00,71.6,67.0,30.14,SSW,205,3.0,8.0,85,0.00,,,0.00,605,weatherlink.com 1.10,2013-01-06 17:09:00,
2013-01-06 12:24:00,72.1,67.0,30.14,SSW,196,2.0,8.0,83,0.00,,,0.00,570,weatherlink.com 1.10,2013-01-06 17:24:00,
2013-01-06 12:39:00,73.0,67.0,30.12,SE,134,0.0,5.0,81,0.00,,,0.00,606,weatherlink.com 1.10,2013-01-06 17:39:00,
2013-01-06 12:54:00,73.4,67.0,30.12,SE,141,0.0,4.0,81,0.00,,,0.00,601,weatherlink.com 1.10,2013-01-06 17:54:00,
2013-01-06 13:09:00,75.2,67.0,30.11,SW,236,2.0,4.0,76,0.00,,,0.00,606,weatherlink.com 1.10,2013-01-06 18:09:00,
2013-01-06 13:25:00,76.7,68.0,30.10,South,169,1.0,5.0,74,0.00,,,0.00,626,weatherlink.com 1.10,2013-01-06 18:25:00,
2013-01-06 13:40:00,76.2,67.0,30.09,ESE,120,1.0,4.0,74,0.00,,,0.00,526,weatherlink.com 1.10,2013-01-06 18:40:00,
2013-01-06 13:55:00,76.5,67.0,30.09,SW,234,0.0,5.0,73,0.00,,,0.00,582,weatherlink.com 1.10,2013-01-06 18:55:00,
2013-01-06 14:10:00,78.4,67.0,30.08,SW,215,0.0,4.0,69,0.00,,,0.00,501,weatherlink.com 1.10,2013-01-06 19:10:00,
2013-01-06 14:25:00,78.2,67.0,30.08,South,177,0.0,4.0,69,0.00,,,0.00,536,weatherlink.com 1.10,2013-01-06 19:25:00,
2013-01-06 14:40:00,77.0,67.0,30.08,SE,138,0.0,3.0,70,0.00,,,0.00,287,weatherlink.com 1.10,2013-01-06 19:40:00,
2013-01-06 14:55:00,76.8,67.0,30.07,SSE,163,1.0,2.0,71,0.00,,,0.00,109,weatherlink.com 1.10,2013-01-06 19:55:00,
2013-01-06 15:10:00,76.4,67.0,30.07,SSE,156,0.0,2.0,72,0.00,,,0.00,146,weatherlink.com 1.10,2013-01-06 20:10:00,
2013-01-06 15:25:00,76.7,67.0,30.07,South,188,0.0,3.0,71,0.00,,,0.00,179,weatherlink.com 1.10,2013-01-06 20:25:00,
2013-01-06 15:40:00,77.0,67.0,30.07,South,185,0.0,2.0,71,0.00,,,0.00,146,weatherlink.com 1.10,2013-01-06 20:40:00,
2013-01-06 15:55:00,76.6,67.0,30.07,SSE,147,2.0,2.0,72,0.00,,,0.00,109,weatherlink.com 1.10,2013-01-06 20:55:00,
2013-01-06 16:10:00,76.3,67.0,30.07,SSE,147,0.0,3.0,74,0.00,,,0.00,83,weatherlink.com 1.10,2013-01-06 21:10:00,
2013-01-06 16:25:00,76.0,67.0,30.07,SSE,147,0.0,0.0,74,0.00,,,0.00,39,weatherlink.com 1.10,2013-01-06 21:25:00,
2013-01-06 16:40:00,75.9,67.0,30.07,SSE,147,0.0,0.0,75,0.00,,,0.00,39,weatherlink.com 1.10,2013-01-06 21:40:00,
2013-01-06 16:55:00,74.7,66.0,30.08,WNW,300,3.0,9.0,75,0.00,,,0.00,26,weatherlink.com 1.10,2013-01-06 21:55:00,
2013-01-06 17:10:00,72.8,67.0,30.08,WNW,290,2.0,7.0,81,0.00,,,0.00,11,weatherlink.com 1.10,2013-01-06 22:10:00,
2013-01-06 17:25:00,71.1,67.0,30.09,NNW,334,0.0,6.0,86,0.02,,,0.02,0,weatherlink.com 1.10,2013-01-06 22:25:00,
2013-01-06 17:40:00,69.9,67.0,30.11,West,265,0.0,4.0,91,0.04,,,0.04,0,weatherlink.com 1.10,2013-01-06 22:40:00,
2013-01-06 17:55:00,69.1,67.0,30.11,WSW,243,1.0,3.0,93,0.06,,,0.06,0,weatherlink.com 1.10,2013-01-06 22:55:00,
2013-01-06 18:10:00,68.5,67.0,30.11,NNW,331,0.0,3.0,94,0.06,,,0.06,0,weatherlink.com 1.10,2013-01-06 23:10:00,
2013-01-06 18:25:00,68.2,67.0,30.10,NNW,331,1.0,2.0,95,0.04,,,0.06,0,weatherlink.com 1.10,2013-01-06 23:25:00,
2013-01-06 18:40:00,67.9,67.0,30.11,North,9,0.0,2.0,95,0.02,,,0.06,0,weatherlink.com 1.10,2013-01-06 23:40:00,
2013-01-06 18:55:00,67.7,67.0,30.11,North,9,0.0,0.0,96,0.00,,,0.06,0,weatherlink.com 1.10,2013-01-06 23:55:00,
2013-01-06 19:10:00,67.5,66.0,30.11,North,9,0.0,0.0,96,0.00,,,0.06,0,weatherlink.com 1.10,2013-01-07 00:10:00,
2013-01-06 19:25:00,67.3,66.0,30.12,North,9,0.0,1.0,96,0.00,,,0.06,0,weatherlink.com 1.10,2013-01-07 00:25:00,
2013-01-06 19:40:00,67.3,67.0,30.13,North,9,0.0,1.0,97,0.00,,,0.06,0,weatherlink.com 1.10,2013-01-07 00:40:00,
2013-01-06 19:55:00,67.3,67.0,30.12,North,9,0.0,2.0,97,0.00,,,0.06,0,weatherlink.com 1.10,2013-01-07 00:55:00,
2013-01-06 20:10:00,67.2,66.0,30.13,North,9,1.0,3.0,97,0.00,,,0.06,0,weatherlink.com 1.10,2013-01-07 01:10:00,
2013-01-06 20:25:00,66.8,66.0,30.13,NE,51,2.0,4.0,96,0.00,,,0.06,0,weatherlink.com 1.10,2013-01-07 01:25:00,
2013-01-06 20:40:00,66.3,65.0,30.13,North,11,4.0,9.0,96,0.00,,,0.06,0,weatherlink.com 1.10,2013-01-07 01:40:00,
2013-01-06 20:55:00,65.7,65.0,30.12,ENE,74,1.0,7.0,96,0.00,,,0.06,0,weatherlink.com 1.10,2013-01-07 01:55:00,
2013-01-06 21:10:00,64.3,63.0,30.13,ENE,76,2.0,8.0,95,0.00,,,0.06,0,weatherlink.com 1.10,2013-01-07 02:10:00,
2013-01-06 21:25:00,63.4,62.0,30.15,NNE,33,0.0,5.0,95,0.00,,,0.06,0,weatherlink.com 1.10,2013-01-07 02:25:00,
2013-01-06 21:40:00,62.1,60.0,30.16,NNE,15,2.0,6.0,94,0.00,,,0.06,0,weatherlink.com 1.10,2013-01-07 02:40:00,
2013-01-06 21:55:00,61.5,60.0,30.17,NE,38,4.0,8.0,94,0.00,,,0.06,0,weatherlink.com 1.10,2013-01-07 02:55:00,
2013-01-06 22:10:00,60.9,60.0,30.18,NNW,344,2.0,6.0,95,0.00,,,0.06,0,weatherlink.com 1.10,2013-01-07 03:10:00,
2013-01-06 22:25:00,60.7,59.0,30.17,NNW,347,2.0,6.0,94,0.00,,,0.06,0,weatherlink.com 1.10,2013-01-07 03:25:00,
2013-01-06 22:40:00,60.2,59.0,30.17,NNE,20,0.0,7.0,95,0.00,,,0.06,0,weatherlink.com 1.10,2013-01-07 03:40:00,
2013-01-06 22:55:00,60.0,59.0,30.16,North,7,3.0,7.0,96,0.00,,,0.06,0,weatherlink.com 1.10,2013-01-07 03:55:00,
2013-01-06 23:10:00,59.9,59.0,30.17,North,10,6.0,6.0,96,0.00,,,0.06,0,weatherlink.com 1.10,2013-01-07 04:10:00,
2013-01-06 23:25:00,59.9,59.0,30.17,NW,317,2.0,6.0,96,0.00,,,0.06,0,weatherlink.com 1.10,2013-01-07 04:25:00,
2013-01-06 23:40:00,59.7,59.0,30.16,NW,324,3.0,6.0,96,0.00,,,0.06,0,weatherlink.com 1.10,2013-01-07 04:40:00,
2013-01-06 23:55:00,59.7,59.0,30.16,North,9,0.0,7.0,96,0.00,,,0.06,0,weatherlink.com 1.10,2013-01-07 04:55:00,